EW6338 Weather Reports


Display with metric or nautical units.
time (UTC)temp
F
wind
direction
speed
MPH
gust
MPH
rain 1hr
in
rain 24hr
in
rain mn
in
humidity
%
barometer
mb
20260505173029 81 226 4.0 15.0 0.00 0.00 0.00 41 1005.5
20260505171528 81 296 5.0 13.0 0.00 0.00 0.00 40 1005.9
20260505170026 80 182 3.0 11.0 0.00 0.00 0.00 42 1005.9
20260505164523 79 39 3.0 13.0 0.00 0.00 0.00 43 1006.2
20260505163017 79 218 2.0 6.0 0.00 0.00 0.00 45 1006.4
20260505161516 78 246 3.0 6.0 0.00 0.00 0.00 47 1006.7
20260505153004 73 213 1.0 8.0 0.00 0.00 0.00 54 1007.5
20260505151501 73 300 0.0 9.0 0.00 0.00 0.00 55 1007.5
20260505124538 64 150 0.0 7.0 0.00 0.00 0.00 67 1008.0
20260505123048 63 267 2.0 10.0 0.00 0.00 0.00 67 1008.0
20260505121534 62 304 1.0 6.0 0.00 0.00 0.00 67 1007.9
20260505120043 61 271 3.0 5.0 0.00 0.00 0.00 69 1007.9
20260505114527 60 165 1.0 5.0 0.00 0.00 0.00 70 1007.9
20260505113023 59 276 1.0 9.0 0.00 0.00 0.00 72 1007.8
20260505111529 58 162 0.0 6.0 0.00 0.00 0.00 73 1007.9
20260505101515 55 270 0.0 2.0 0.00 0.00 0.00 75 1007.9
20260505100015 54 195 0.0 2.0 0.00 0.00 0.00 75 1007.8
20260505094517 53 139 0.0 2.0 0.00 0.00 0.00 76 1007.8
20260505093012 53 219 0.0 1.0 0.00 0.00 0.00 75 1007.8
20260505091512 53 352 0.0 2.0 0.00 0.00 0.00 75 1007.9
20260505090010 53 271 0.0 1.0 0.00 0.00 0.00 75 1008.0
20260505084511 53 143 0.0 1.0 0.00 0.00 0.00 73 1008.1
20260505083012 54 198 0.0 3.0 0.00 0.00 0.00 72 1008.1
20260505081504 54 143 0.0 2.0 0.00 0.00 0.00 72 1008.0
20260505080006 54 143 0.0 2.0 0.00 0.00 0.00 72 1008.3
20260505074502 55 219 0.0 3.0 0.00 0.00 0.00 71 1008.3
20260505073000 54 259 0.0 3.0 0.00 0.00 0.00 72 1008.3
20260505071615 54 136 0.0 3.0 0.00 0.00 0.00 72 1008.3
20260505064605 54 145 0.0 3.0 0.00 0.00 0.00 71 1008.4
20260505063100 54 154 0.0 1.0 0.00 0.00 0.00 70 1008.3
20260505061558 55 155 0.0 4.0 0.00 0.00 0.00 70 1008.4
20260505060101 55 238 0.0 4.0 0.00 0.00 0.00 69 1008.4
20260505054553 55 269 0.0 1.0 0.00 0.00 0.00 69 1008.5
20260505053050 56 138 0.0 2.0 0.00 0.00 0.00 67 1008.6
20260505051549 56 289 0.0 5.0 0.00 0.00 0.00 66 1008.6
20260505041552 57 188 1.0 5.0 0.00 0.00 0.00 62 1008.5
20260505040046 57 257 0.0 4.0 0.00 0.00 0.00 61 1008.4
20260505034538 58 185 1.0 5.0 0.00 0.00 0.00 60 1008.4
20260505033037 58 77 0.0 3.0 0.00 0.00 0.00 59 1008.4
20260505031536 59 72 0.0 3.0 0.00 0.00 0.00 58 1008.3
20260505030046 59 140 0.0 4.0 0.00 0.00 0.00 57 1008.4
20260505024535 59 290 1.0 5.0 0.00 0.00 0.00 56 1008.4
20260505023035 60 220 1.0 4.0 0.00 0.00 0.00 55 1008.3
20260505021535 60 205 0.0 8.0 0.00 0.00 0.00 54 1008.3
20260505020039 61 271 1.0 5.0 0.00 0.00 0.00 53 1008.3
20260505014553 61 237 3.0 10.0 0.00 0.00 0.00 53 1008.1
20260505013039 62 124 2.0 6.0 0.00 0.00 0.00 52 1008.0
20260505011539 63 159 0.0 7.0 0.00 0.00 0.00 51 1007.6
20260505010034 63 201 0.0 6.0 0.00 0.00 0.00 49 1007.3
20260505004543 64 193 2.0 11.0 0.00 0.00 0.00 48 1006.9
20260505003050 65 20 2.0 10.0 0.00 0.00 0.00 47 1006.5
20260505001530 65 333 3.0 8.0 0.00 0.00 0.00 45 1006.1
20260505000034 66 207 1.0 6.0 0.00 0.00 0.00 41 1005.7
20260504234528 68 257 0.0 4.0 0.00 0.00 0.00 38 1005.3
20260504233029 68 311 1.0 4.0 0.00 0.00 0.00 37 1005.1
20260504231527 69 268 2.0 6.0 0.00 0.00 0.00 36 1004.9
20260504230026 70 285 0.0 5.0 0.00 0.00 0.00 36 1004.7
20260504224526 70 139 2.0 9.0 0.00 0.00 0.00 35 1004.6
20260504223027 71 135 0.0 5.0 0.00 0.00 0.00 35 1004.6
20260504221524 72 41 0.0 4.0 0.00 0.00 0.00 34 1004.6
20260504220023 72 293 3.0 8.0 0.00 0.00 0.00 33 1004.5
20260504214523 72 292 3.0 12.0 0.00 0.00 0.00 33 1004.5
20260504213027 73 51 2.0 13.0 0.00 0.00 0.00 32 1004.5
20260504211533 73 224 2.0 11.0 0.00 0.00 0.00 31 1004.5
20260504210020 73 203 2.0 6.0 0.00 0.00 0.00 32 1004.4
20260504204519 73 251 3.0 9.0 0.00 0.00 0.00 32 1004.6
20260504203018 73 304 1.0 10.0 0.00 0.00 0.00 32 1004.4
20260504201517 72 138 4.0 21.0 0.00 0.00 0.00 31 1004.5
20260504200018 73 115 3.0 12.0 0.00 0.00 0.00 31 1004.6
20260504194515 73 91 3.0 11.0 0.00 0.00 0.00 30 1004.7
20260504193014 73 138 1.0 14.0 0.00 0.00 0.00 31 1004.6
20260504191512 73 248 3.0 11.0 0.00 0.00 0.00 31 1004.8
20260504190009 72 26 2.0 11.0 0.00 0.00 0.00 31 1004.8
20260504184507 72 312 2.0 12.0 0.00 0.00 0.00 31 1005.1
20260504183009 71 314 4.0 11.0 0.00 0.00 0.00 31 1005.2
20260504181505 71 101 4.0 17.0 0.00 0.00 0.00 32 1005.2
20260504180004 70 231 3.0 17.0 0.00 0.00 0.00 32 1005.2
20260504174602 70 278 2.0 11.0 0.00 0.00 0.00 33 1005.3